User: anonymous   Login
Location: Unspecified
(0.0000°N, 0.0000°E)
Time: 06:35:48
(UTC+00:00)
Language:

Shinsei - Orbit

View from above orbital plane
View from above orbital plane
View from above satellite
View from above satellite

Ground track
Ground track

The orbit data is extracted from the following two-line orbital elements,

1  5485U 71080A   20225.55921088 +.00000038 +00000-0 +31768-4 0  9997
2  5485 032.0584 338.6042 0640383 326.5072 029.6543 12.74138933276871
Epoch (UTC): 12 August 2020 13:25:15
Eccentricity: 0.0640383
inclination: 32.0584°
perigee height: 869 km
apogee height: 1861 km
right ascension of ascending node: 338.6042°
argument of perigee: 326.5072°
revolutions per day: 12.74138933
mean anomaly at epoch: 29.6543°
orbit number at epoch: 27687

The dashed part of the orbit path shows where the satellite is in the earth's shadow,  

DLR